Weather History for Kotzebue, AK

Change the Weather History Date:

Sunday, April 28, 2013

  Actual Average Record
Temperature  
Mean Temperature 17 °F 22 °F  
Max Temperature 24 °F 29 °F 45 °F (2014)
Min Temperature 9 °F 15 °F -17 °F (1964)
Degree Days  
Heating Degree Days 48 43  
Month to date heating degree days 1569 1467  
Since 1 July heating degree days 13810 13696  
Cooling Degree Days 0    
Month to date cooling degree days 0  
Year to date cooling degree days 0  
Moisture  
Dew Point 16 °F    
Average Humidity 0    
Maximum Humidity 0    
Minimum Humidity 0    
Precipitation  
Precipitation 0.00 in 0.02 in 0.17 in (1983)
Month to date precipitation 0.31 0.50  
Year to date precipitation 2.74 2.22  
Snow  
Snow 0.00 in 0.10 in 3.70 in (1984)
Month to date snowfall 3.1 4.8  
Since 1 July snowfall 31.1 58.3  
Snow Depth 5.00 in    
Sea Level Pressure  
Sea Level Pressure 30.33 in    
Wind  
Wind Speed 16 mph (WNW)    
Max Wind Speed 23 mph    
Max Gust Speed 26 mph    
Visibility 8 miles    
Events Snow    
T = Trace of Precipitation, MM = Missing Value Source: NWS Daily Summary

Daily Weather History Graph

Daily Weather History Graph

Search for Another Location

Airport:

Trip Planner

Search our weather history database for the weather conditions in past years. The results will help you decide how hot, cold, wet, or windy it might be!

Date:

Astronomy

Apr. 28, 2013 Rise Set
Actual Time 6:09 AM AKDT 11:28 PM AKDT
Civil Twilight 4:45 AM AKDT 12:56 AM AKDT
Nautical Twilight Sun does not rise Sun does not rise
Astronomical Twilight Sun does not rise Sun does not rise
Moon 3:18 AM AKDT (4/28) 7:26 AM AKDT (4/28)
Length of Visible Light 20h 11m
Length of Day
17h 18m
Waning Gibbous, 87% of the Moon is Illuminated
Apr 28
Waning Gibbous
May 2
Last Quarter
May 9
New
May 17
First Quarter
May 24
Full

Hourly Weather History & Observations

Time (AKDT) Temp. Windchill Dew Point Humidity Pressure Visibility Wind Dir Wind Speed Gust Speed Precip Events Conditions
12:53 AM 17.1 °F -0.3 °F 12.9 °F 84% 30.34 in 10.0 mi NW 21.9 mph - N/A   Clear
1:53 AM 14.0 °F -0.2 °F 10.9 °F 88% 30.35 in 10.0 mi NW 12.7 mph - N/A   Clear
2:53 AM 12.9 °F -0.2 °F 10.0 °F 88% 30.35 in 10.0 mi WNW 10.4 mph - N/A   Partly Cloudy
3:53 AM 12.0 °F -4.5 °F 9.0 °F 88% 30.36 in 10.0 mi NW 16.1 mph - N/A   Partly Cloudy
4:53 AM 10.0 °F -0.9 °F 8.1 °F 92% 30.36 in 10.0 mi NNW 6.9 mph - N/A   Partly Cloudy
5:53 AM 10.9 °F -0.8 °F 9.0 °F 92% 30.36 in 10.0 mi West 8.1 mph - N/A   Mostly Cloudy
6:53 AM 15.1 °F 1.1 °F 12.0 °F 88% 30.36 in 5.0 mi WNW 12.7 mph - N/A   Overcast
7:53 AM 17.1 °F 3.0 °F 15.1 °F 92% 30.35 in 7.0 mi WNW 13.8 mph - N/A   Overcast
8:53 AM 16.0 °F 3.6 °F 14.0 °F 92% 30.36 in 8.0 mi West 10.4 mph - N/A   Overcast
9:53 AM 18.0 °F 4.2 °F 16.0 °F 92% 30.35 in 6.0 mi WNW 13.8 mph - N/A   Mostly Cloudy
10:53 AM 21.0 °F 6.2 °F 19.0 °F 92% 30.35 in 6.0 mi WNW 18.4 mph - N/A   Mostly Cloudy
11:06 AM 21.2 °F 6.4 °F 19.4 °F 93% 30.35 in 4.0 mi WNW 18.4 mph - N/A Snow Blowing Snow
11:45 AM 23.0 °F 8.3 °F 19.4 °F 86% 30.35 in 2.0 mi WNW 19.6 mph 24.2 mph 0.00 in Snow Light Snow
11:53 AM 21.9 °F 7.3 °F 19.9 °F 92% 30.35 in 2.0 mi WNW 18.4 mph 26.5 mph 0.00 in Snow Blowing Snow
12:53 PM 23.0 °F 8.3 °F 19.4 °F 86% 30.35 in 5.0 mi WNW 19.6 mph - N/A Snow Blowing Snow
1:50 PM 23.0 °F 8.7 °F 19.4 °F 86% 30.35 in 2.5 mi West 18.4 mph - N/A Snow Blowing Snow
1:53 PM 23.0 °F 8.7 °F 19.9 °F 88% 30.35 in 3.0 mi West 18.4 mph - N/A Snow Blowing Snow
2:53 PM 23.0 °F 8.7 °F 19.9 °F 88% 30.34 in 4.0 mi West 18.4 mph - N/A   Overcast
3:53 PM 23.0 °F 8.3 °F 19.0 °F 85% 30.33 in 8.0 mi West 19.6 mph - N/A   Overcast
4:10 PM 23.0 °F 8.7 °F 19.4 °F 86% 30.33 in 8.0 mi West 18.4 mph - N/A   Overcast
4:53 PM 23.0 °F 9.6 °F 19.0 °F 85% 30.33 in 10.0 mi West 16.1 mph - N/A   Overcast
5:53 PM 21.9 °F 8.2 °F 18.0 °F 85% 30.33 in 9.0 mi West 16.1 mph - N/A   Overcast
6:53 PM 21.9 °F 9.2 °F 18.0 °F 85% 30.32 in 10.0 mi West 13.8 mph - N/A   Overcast
7:53 PM 21.9 °F 8.7 °F 18.0 °F 85% 30.30 in 10.0 mi West 15.0 mph - N/A   Overcast
8:53 PM 21.0 °F 8.1 °F 18.0 °F 88% 30.29 in 10.0 mi West 13.8 mph - N/A   Overcast
9:53 PM 21.0 °F 8.6 °F 18.0 °F 88% 30.28 in 10.0 mi West 12.7 mph - N/A   Overcast
10:53 PM 19.9 °F 7.9 °F 17.1 °F 89% 30.27 in 10.0 mi West 11.5 mph - N/A   Overcast
11:53 PM 19.9 °F 7.9 °F 17.1 °F 89% 30.26 in 10.0 mi West 11.5 mph - N/A   Overcast